Location: Archemont
(49.1579°N, 1.7598°E)
Time: 09:56:22
(UTC+00:00)

deb Explorer IX - Pass Details

Date: 18 April 2024
Orbit: 513 x 891 km, 38.7° (Epoch: 23 May)

Event Time Altitude Azimuth Distance (km) Brightness Sun altitude
Rises 10:43:46 0° 200° (SSW) 3,422 ? 49.4°
Reaches altitude 10° 10:47:47 10° 174° (S) 2,539 ? 49.6°
Maximum altitude 10:50:26 13° 148° (SSE) 2,345 ? 49.8°
Drops below altitude 10° 10:53:08 10° 122° (ESE) 2,575 ? 50.0°
Sets 10:57:15 0° 97° (E) 3,516 ? 50.3°
